Погода Нерчинский Завод

Погода Нерчинский Завод : погода сейчас, прогноз погоды и архив. Всё, что Вы хотите узнать о погоде Нерчинский Завод!

Хотите узнать прогноз погоды Нерчинский Завод? Тогда Вам сюда: Погода Нерчинский Завод

Поиск расширенной информации на нашем сайте:

Другие новости

Новости СМИ2

Главная страница сайта

Новости сайта

03.07.2017

Напоминаем, что на нашем специализированном сайте Метеоцентр.Азия вы можете получить высокодетализированные автоматические прогнозы погоды по пунктам России, СНГ и мира в авиационном формате (включающие направление и скорость ветра, видимость, явления погоды, количество и форму облачности, нижнюю и верхнюю границу облачности).


Погода Нерчинский Завод - сегодня

Время (UTC), дата Ветер
(°,м/с) 
Видим.   Явления Облачность Т
(°С)
Тd
(°С)
f(%) Тe
(°С)
Pmin
(гПа)
dP
(гПа)
Po
(мм)
O2
(г/м3)
Тmin Tmax R s Состояние
почвы
21 20.10.17 280 (З) н/о    ясно 
-11.5 -15.5 72 -11  1031.6  0.8  714  302           
00 21.10.17 тихо ()   20000 м    1/0 верхняя 
[Cc]
-10.1 -14.1 72 -10  1031.8  0.6  715  300  -13.5         
03 21.10.17 250 (З) 20000 м    1/1 1000 м 
[Cu hum]
-3.7 -14.1 44 -5  1029.5  -0.3  714  293           
06 21.10.17 300 (СЗ) 20000 м    3/0 верхняя 
[Cc]
-0.4 -16.2 29 -1  1027  -1.5  713  289           
09 21.10.17 290 (З) 20000 м    ясно 
-3.4 -16.3 36 -3  1027.5  -0.3  713  292           
12 21.10.17 тихо ()   н/о    ясно 
-9.3 -15.2 62 -9  1030.5  1.1  714  299    -0.3       
15 21.10.17 тихо ()   н/о    ясно 
-9.9 -15.4 64 -10  1031.2  0.5  714  300           
18 21.10.17 тихо ()   н/о    ясно 
-12.1 -15.8 74 -12  1032.7  0.7  715  303           
21 21.10.17 тихо ()   н/о    ясно 
-13.5 -16.3 79 -14  1033.9  0.7  715  304           
00 22.10.17 тихо ()   20000 м    ясно 
-11.5 -15.2 74 -12  1034.2  0.9  716  302  -14.5         
03 22.10.17 080 (В) 20000 м    ясно 
-2 -12.1 46 -1  1031.1  0.1  716  292           
06 22.10.17 220 (ЮЗ) 20000 м    ясно 
+4.5 -11.7 30 +4  1027.1  -2.1  714  284           
09 22.10.17 тихо ()   20000 м    ясно 
+1 -10.5 42 +1  1027.4  -0.6  714  287           
12 22.10.17 тихо ()   н/о    ясно 
-4.2 -10.4 62 -4  1028.7  -0.2  714  293    +4.7       
15 22.10.17 тихо ()   н/о    ясно 
-6 -10.4 71 -6  1029  -0.2  713  295           
18 22.10.17 тихо ()   н/о    ясно 
-7.3 -10.5 78 -7  1028.8  -0.5  713  296           
21 22.10.17 тихо ()   н/о    3/0 верхняя 
[Ci fib]
-7.8 -10.4 82 -8  1027.9  -1  712  296           
00 23.10.17 тихо ()   20000 м    3/0 верхняя 
[Ci fib]
-5.9 -9.3 77 -6  1027.2  -0.1  712  294  -8.7         
03 23.10.17 160 (Ю) 20000 м    ясно 
+4.6 -8.2 39 +4  1022.4  -1.6  711  282           
06 23.10.17 220 (ЮЗ) 20000 м    ясно 
+7.6 -7.6 33 +6  1019.1  -2.3  709  279           
09 23.10.17 210 (ЮЗ) 20000 м    10/0 верхняя 
[Ci ing]
+4.6 -7.8 40 +5  1018  -1.8  708  281           
12 23.10.17 270 (З) н/о    10/0 верхняя 
[Ci ing]
+3.5 -5 54 +3  1017  -1.1  707  282    +8.1       
15 23.10.17 тихо ()   н/о    ясно 
-1.3 -5.9 71 -1  1016.3  -1.9  706  286           
18 23.10.17 тихо ()   н/о    ясно 
-3.9 -6.6 81 -4  1015.8  -1.2  705  289           
21 23.10.17 тихо ()   н/о    ясно 
-5.1 -6.8 88 -5  1015.6  -0.5  704  290           
Время (UTC), дата Ветер
(°,м/с) 
Видим.   Явления Облачность Т
(°С)
Тd
(°С)
f(%) Тe
(°С)
Pmin
(гПа)
dP
(гПа)
Po
(мм)
O2
(г/м3)
Тmin Tmax R s Состояние
почвы

Для получения пояснительной информации подведите курсор к названию столбца.

ПОГОДА Нерчинский Завод - архив

Всё, что Вы хотите узнать о погоде Нерчинский Завод - удобно и подробно!

Выберите нужную дату (начиная с 1 января 2015* года) и нажмите кнопку "Найти".
Будут отображены архивные сводки погоды по пункту Нерчинский Завод, начиная с указанной даты.


Отображать данные в формате CSV (для использования в таблицах Excel)


Внимание! Наш архив погоды предназначен исключительно для личного некоммерческого использования в познавательных целях. Если Вам необходимы официальные справки о состоянии погоды (для производственных, юридических, коммерческих и т.п. целей), обращайтесь в органы Росгидромета.

*Примечание: данная дата относится к архиву по метеостанциям СССР (Россия, СНГ, Балтия).
Архив по метеостанциям Зарубежной Европы и Азии (кроме Китая) хранится 10 дней, по другим регионам земного шара (Китай, Африка, Америка, Австралия, Океания) - 1 день.

Нерчинский Завод - район местоположения метеостанции


Название, широта, долгота, высота метеостанции:
Нерчинский Завод 51.3°ш. 119.6°д. 619 м над ур. моря [Российская Федерация]

Дополнительная информация

В oтличие oт бoльшинства пoгoдных сайтoв мы публикуем пoдрoбную метеoинфoрмацию в детальнoм прoфессиoнальнoм фoрмате.

Характеристики температуры и влажнoсти вoздуха измеряются на высoте 2 м в тени вдали oт зданий и деревьев.
Скoрoсть ветра измеряется на высoте 10 м (на урoвне рoста челoвека скoрoсть ветра ниже в 1.5-2 раза). Если метеoстанция нахoдится в гoрoде или в лесу, тo скoрoсть ветра занижена на 2-4 м/с пo сравнению с oткрытым местoм. Скoрoсть ветра над акватoриями крупных рек и oзёр, а также на вершинах хoлмoв на 2-5 м/с выше, чем в oбычных услoвиях.
Атмoсфернoе давление в разных тoчках местнoсти мoжет значительнo oтличаться oт давления на метеoстанции, в зависимoсти oт услoвий рельефа (при пoдъёме на 10 м давление пoнижается примернo на 1 мм рт.ст.).